Terug naar catalogus

SL-8 R/B

ActiefLEO
NORAD 12644·ROCKET BODY·🇷🇺 Russia

Gelanceerd Aug 6, 1981 vanaf Plesetsk Cosmodrome

Loading…

Volgende Passages (komende 24 uur)

TLE

VersSource: Space-Track

Epoch: Sep 14, 2026, 07:41 UTC

1 12644U 81074J   26257.32064039 -.00000085  00000-0 -60662-3 0  9994
2 12644  74.0293 101.5081 0130798 356.2115 176.2809 12.26027005 18648

Volg SL-8 R/B in realtime met AllMySat

Download on the App Store